TimeCDT,TemperatureF,Dew PointF,Humidity,Sea Level PressureIn,VisibilityMPH,Wind Direction,Wind SpeedMPH,Gust SpeedMPH,PrecipitationIn,Events,Conditions,WindDirDegrees,DateUTC
12:15 AM,35.6,33.1,91,30.01,10.0,North,3.5,-,N/A,,Scattered Clouds,360,2013-03-27 05:15:00
12:35 AM,34.9,33.1,93,30.01,10.0,North,4.6,-,N/A,,Mostly Cloudy,350,2013-03-27 05:35:00
12:55 AM,34.7,32.9,93,30.01,10.0,Calm,Calm,-,N/A,,Overcast,0,2013-03-27 05:55:00
1:35 AM,34.2,32.9,95,30.01,10.0,Calm,Calm,-,N/A,,Overcast,0,2013-03-27 06:35:00
1:55 AM,34.7,33.3,94,30.01,10.0,Calm,Calm,-,N/A,,Overcast,0,2013-03-27 06:55:00
2:15 AM,34.9,33.3,94,30.00,10.0,North,4.6,-,N/A,,Light Drizzle,350,2013-03-27 07:15:00
2:35 AM,34.9,33.4,94,30.00,10.0,Calm,Calm,-,N/A,,Overcast,0,2013-03-27 07:35:00
2:55 AM,34.5,33.1,94,29.99,7.0,WNW,3.5,-,N/A,,Overcast,290,2013-03-27 07:55:00
3:15 AM,34.0,32.9,96,29.98,7.0,WNW,4.6,-,N/A,,Overcast,290,2013-03-27 08:15:00
3:55 AM,33.8,32.5,95,29.98,7.0,NW,4.6,-,N/A,,Overcast,310,2013-03-27 08:55:00
4:15 AM,33.4,32.2,95,29.98,5.0,WNW,4.6,-,N/A,,Overcast,300,2013-03-27 09:15:00
4:35 AM,33.8,32.4,94,29.97,7.0,WNW,4.6,-,N/A,,Overcast,300,2013-03-27 09:35:00
4:55 AM,34.0,32.9,96,29.97,7.0,WNW,4.6,-,N/A,,Overcast,290,2013-03-27 09:55:00
5:15 AM,32.9,32.0,96,29.97,7.0,NW,4.6,-,N/A,,Overcast,310,2013-03-27 10:15:00
5:35 AM,32.2,31.6,98,29.98,7.0,WNW,4.6,-,N/A,,Mostly Cloudy,290,2013-03-27 10:35:00
5:55 AM,32.9,32.0,96,29.98,7.0,WNW,8.1,-,N/A,,Mostly Cloudy,300,2013-03-27 10:55:00
6:15 AM,33.3,32.0,95,29.99,7.0,NW,6.9,-,N/A,,Overcast,310,2013-03-27 11:15:00
6:35 AM,33.4,32.0,94,29.99,7.0,NW,5.8,-,N/A,,Overcast,320,2013-03-27 11:35:00
6:55 AM,33.3,32.0,95,30.00,7.0,NW,6.9,-,N/A,,Overcast,310,2013-03-27 11:55:00
7:15 AM,33.1,32.0,96,30.01,7.0,NW,5.8,-,N/A,,Overcast,310,2013-03-27 12:15:00
7:35 AM,32.9,32.0,96,30.01,10.0,NNW,4.6,-,N/A,,Overcast,330,2013-03-27 12:35:00
7:55 AM,32.2,31.1,96,30.02,7.0,Calm,Calm,-,N/A,,Overcast,0,2013-03-27 12:55:00
8:15 AM,32.9,32.0,96,30.03,7.0,West,3.5,-,N/A,,Overcast,280,2013-03-27 13:15:00
8:35 AM,33.3,32.0,95,30.03,7.0,WSW,3.5,-,N/A,,Overcast,240,2013-03-27 13:35:00
8:55 AM,33.8,32.2,94,30.04,7.0,West,3.5,-,N/A,,Overcast,280,2013-03-27 13:55:00
9:15 AM,34.3,32.9,94,30.05,10.0,Calm,Calm,-,N/A,,Overcast,0,2013-03-27 14:15:00
9:35 AM,35.2,33.4,93,30.05,10.0,West,3.5,-,N/A,Rain,Light Rain,270,2013-03-27 14:35:00
9:55 AM,36.7,34.2,91,30.05,10.0,Calm,Calm,-,N/A,,Overcast,0,2013-03-27 14:55:00
10:15 AM,37.9,35.1,89,30.06,10.0,Calm,Calm,-,N/A,,Overcast,0,2013-03-27 15:15:00
10:35 AM,39.6,36.1,88,30.06,10.0,Calm,Calm,-,N/A,,Overcast,0,2013-03-27 15:35:00
10:55 AM,40.5,35.2,82,30.06,10.0,Calm,Calm,-,N/A,,Overcast,0,2013-03-27 15:55:00
11:15 AM,41.0,34.7,78,30.07,10.0,Calm,Calm,-,N/A,,Mostly Cloudy,0,2013-03-27 16:15:00
11:35 AM,43.0,34.9,73,30.07,10.0,Calm,Calm,-,N/A,,Scattered Clouds,0,2013-03-27 16:35:00
11:55 AM,44.4,34.9,69,30.07,10.0,Calm,Calm,-,N/A,,Scattered Clouds,0,2013-03-27 16:55:00
12:15 PM,46.4,35.1,65,30.07,10.0,South,3.5,-,N/A,,Scattered Clouds,190,2013-03-27 17:15:00
12:35 PM,47.7,33.8,59,30.07,10.0,SW,4.6,-,N/A,,Scattered Clouds,220,2013-03-27 17:35:00
12:55 PM,47.3,34.0,60,30.07,10.0,Calm,Calm,-,N/A,,Mostly Cloudy,0,2013-03-27 17:55:00
1:15 PM,48.4,34.0,58,30.06,10.0,Calm,Calm,-,N/A,,Mostly Cloudy,0,2013-03-27 18:15:00
1:35 PM,48.7,34.2,57,30.06,10.0,Calm,Calm,-,N/A,,Scattered Clouds,0,2013-03-27 18:35:00
1:55 PM,51.6,33.3,50,30.05,10.0,Calm,Calm,-,N/A,,Mostly Cloudy,0,2013-03-27 18:55:00
2:15 PM,51.1,32.5,49,30.05,10.0,West,3.5,-,N/A,,Mostly Cloudy,270,2013-03-27 19:15:00
2:35 PM,52.5,32.0,46,30.04,10.0,SSW,3.5,-,N/A,,Mostly Cloudy,210,2013-03-27 19:35:00
2:55 PM,54.9,31.6,41,30.04,10.0,Calm,Calm,-,N/A,,Mostly Cloudy,0,2013-03-27 19:55:00
3:15 PM,53.8,30.7,41,30.03,10.0,Calm,Calm,-,N/A,,Scattered Clouds,0,2013-03-27 20:15:00
3:35 PM,55.2,30.2,38,30.02,10.0,SW,6.9,-,N/A,,Scattered Clouds,220,2013-03-27 20:35:00
3:55 PM,54.0,29.5,39,30.02,10.0,Calm,Calm,-,N/A,,Mostly Cloudy,0,2013-03-27 20:55:00
4:15 PM,54.3,29.8,39,30.02,10.0,Calm,Calm,-,N/A,,Mostly Cloudy,0,2013-03-27 21:15:00
4:35 PM,56.1,30.2,37,30.01,10.0,SE,5.8,-,N/A,,Mostly Cloudy,140,2013-03-27 21:35:00
4:55 PM,55.8,29.8,37,30.01,10.0,SSE,4.6,-,N/A,,Scattered Clouds,150,2013-03-27 21:55:00
5:15 PM,56.1,29.7,36,30.01,10.0,SSE,8.1,-,N/A,,Mostly Cloudy,160,2013-03-27 22:15:00
5:35 PM,55.0,30.0,38,30.01,10.0,SE,9.2,-,N/A,,Overcast,130,2013-03-27 22:35:00
5:55 PM,55.4,29.8,38,30.01,10.0,South,5.8,-,N/A,,Mostly Cloudy,180,2013-03-27 22:55:00
6:15 PM,53.8,33.1,45,30.02,10.0,South,13.8,-,N/A,,Mostly Cloudy,170,2013-03-27 23:15:00
6:35 PM,52.3,33.8,49,30.02,10.0,South,15.0,-,N/A,,Overcast,170,2013-03-27 23:35:00
6:55 PM,52.3,33.8,49,30.02,10.0,South,10.4,-,N/A,,Overcast,170,2013-03-27 23:55:00
7:15 PM,53.1,34.0,48,30.02,10.0,South,12.7,-,N/A,,Mostly Cloudy,180,2013-03-28 00:15:00
7:35 PM,49.8,34.2,55,30.04,10.0,South,11.5,-,N/A,,Scattered Clouds,180,2013-03-28 00:35:00
7:55 PM,48.2,34.0,58,30.04,10.0,South,11.5,-,N/A,,Scattered Clouds,180,2013-03-28 00:55:00
8:15 PM,46.6,33.3,60,30.04,10.0,SSW,11.5,-,N/A,,Clear,200,2013-03-28 01:15:00
8:35 PM,44.8,33.3,64,30.04,10.0,SSW,11.5,-,N/A,,Clear,210,2013-03-28 01:35:00
8:55 PM,43.3,32.9,67,30.05,10.0,SSW,10.4,-,N/A,,Clear,210,2013-03-28 01:55:00
9:15 PM,42.1,32.9,70,30.05,10.0,SSW,9.2,-,N/A,,Clear,200,2013-03-28 02:15:00
9:35 PM,39.6,32.2,75,30.06,10.0,South,6.9,-,N/A,,Clear,180,2013-03-28 02:35:00
9:55 PM,36.9,31.8,82,30.08,10.0,SE,4.6,-,N/A,,Clear,130,2013-03-28 02:55:00
10:15 PM,35.8,31.8,86,30.08,10.0,South,6.9,-,N/A,,Clear,180,2013-03-28 03:15:00
10:35 PM,36.1,32.0,85,30.08,10.0,South,10.4,-,N/A,,Clear,170,2013-03-28 03:35:00
10:55 PM,36.3,32.4,86,30.09,10.0,SSE,6.9,-,N/A,,Scattered Clouds,160,2013-03-28 03:55:00
11:15 PM,35.8,32.4,87,30.08,10.0,South,6.9,-,N/A,,Scattered Clouds,170,2013-03-28 04:15:00
11:35 PM,35.2,32.4,89,30.08,10.0,South,8.1,-,N/A,,Scattered Clouds,180,2013-03-28 04:35:00
11:55 PM,35.8,32.0,86,30.08,10.0,South,4.6,-,N/A,,Scattered Clouds,190,2013-03-28 04:55:00